This is the latest recevied weather packets stored in our database for station/object WB3IGR. If no packets are shown the sender has not sent any weather packets the latest 10 day(s).
| Time | Temp. | Humidity | Pressure | Rain* | Wind** | Luminosity | Snow |
|---|---|---|---|---|---|---|---|
| 1777406262 | 12.78° C | 82% | 1019.9 hPa | 0 mm | - | 78 W/m² | - |
| 1777405961 | 12.78° C | 82% | 1020 hPa | 0 mm | - | 101 W/m² | - |
| 1777405657 | 12.78° C | 81% | 1020.1 hPa | 0 mm | - | 108 W/m² | - |
| 1777405355 | 12.78° C | 81% | 1020.4 hPa | 0 mm | - | 121 W/m² | - |
| 1777405051 | 12.78° C | 81% | 1020.4 hPa | 0 mm | - | 96 W/m² | - |
| 1777404746 | 12.78° C | 80% | 1020.5 hPa | 0 mm | - | 87 W/m² | - |
| 1777404441 | 12.78° C | 81% | 1020.2 hPa | 0 mm | - | 85 W/m² | - |
| 1777404138 | 12.78° C | 80% | 1020.5 hPa | 0 mm | - | 62 W/m² | - |
| 1777403834 | 12.78° C | 80% | 1020.7 hPa | 0 mm | - | 61 W/m² | - |
| 1777403529 | 12.78° C | 79% | 1020.8 hPa | 0 mm | - | 55 W/m² | - |
| 1777403223 | 12.78° C | 78% | 1020.7 hPa | 0 mm | - | 60 W/m² | - |
| 1777402918 | 13.33° C | 78% | 1020.9 hPa | 0 mm | - | 82 W/m² | - |
| 1777402614 | 13.33° C | 78% | 1020.8 hPa | 0 mm | - | 99 W/m² | - |
| 1777402312 | 12.78° C | 79% | 1020.7 hPa | 0 mm | - | 152 W/m² | - |
| 1777402005 | 12.78° C | 78% | 1020.9 hPa | 0 mm | - | 117 W/m² | - |
| 1777401705 | 12.78° C | 77% | 1021.2 hPa | 0 mm | - | 109 W/m² | - |
| 1777401402 | 13.33° C | 77% | 1021.3 hPa | 0 mm | - | 96 W/m² | - |
| 1777401097 | 13.33° C | 77% | 1021.3 hPa | 0 mm | - | 94 W/m² | - |
| 1777400793 | 12.78° C | 77% | 1021.5 hPa | 0 mm | - | 130 W/m² | - |
| 1777400490 | 13.33° C | 76% | 1021.6 hPa | 0 mm | - | 119 W/m² | - |
| 1777400186 | 13.33° C | 75% | 1021.7 hPa | 0 mm | - | 144 W/m² | - |
| 1777399883 | 13.33° C | 75% | 1021.8 hPa | 0 mm | - | 136 W/m² | - |
| 1777399580 | 13.33° C | 75% | 1021.8 hPa | 0 mm | - | 155 W/m² | - |
| 1777399277 | 13.33° C | 74% | 1021.6 hPa | 0 mm | - | 150 W/m² | - |
| 1777398975 | 13.89° C | 73% | 1021.5 hPa | 0 mm | - | 210 W/m² | - |
* Rain latest hour (hover to see other rain measurements)
** Current wind speed in m/s (hover to see current wind gust speed)